Regional Weather Roundup
Issued by NWS Mobile, AL

Home | Current Version | Previous Version | Text Only | Print | Product List | Glossary On
Versions: 1 2 3 4 5 6 7 8 9 10 11 12 13 14 15 16 17 18 19 20 21 22 23 24 25 26 27 28 29 30 31 32 33 34 35 36 37 38 39 40 41 42 43 44 45 46 47 48 49 50
703
ASUS44 KMOB 230712
RWRMOB
REGIONAL WEATHER ROUNDUP
NATIONAL WEATHER SERVICE MOBILE AL
100 AM CST THU FEB 23 2017

NOTE: "FAIR" INDICATES FEW OR NO CLOUDS BELOW 12,000 FEET WITH NO
      SIGNIFICANT WEATHER AND/OR OBSTRUCTIONS TO VISIBILITY.

  * THESE STATIONS ARE PART OF THE UNIVERSITY OF SOUTH ALABAMA
    MESONET AND ARE NOT UNDER NWS OR FAA QUALITY CONTROL.

ALZ061>064-230800-
COASTAL ALABAMA

CITY           SKY/WX    TMP DP  RH WIND       PRES   REMARKS
MOBILE REG APT CLEAR     58  55  90 N5        29.82S
BROOKLEY FIELD CLEAR     59  57  93 N5        29.82S
USA CAMPUS*    NOT AVBL
DOG RIVER*     NOT AVBL


CITY           SKY/WX    TMP DP  RH WIND       PRES   REMARKS
GULF SHORES    CLEAR     57  57 100 CALM      29.80S

$$

ALZ051>060-230800-
INTERIOR SOUTHWEST AND SOUTH CENTRAL ALABAMA

CITY           SKY/WX    TMP DP  RH WIND       PRES   REMARKS
GREENVILLE     CLEAR     60  57  89 N5        29.81S
EVERGREEN      PTCLDY    54  52  93 CALM      29.82R FOG
ATMORE*        NOT AVBL
ANDALUSIA/OPP  CLEAR     62  58  86 NE3       29.80R
ANDALUSIA*     NOT AVBL
FLORALA APT    NOT AVBL
FLORALA*       NOT AVBL

$$

FLZ001>006-230800-
WESTERN FLORIDA PANHANDLE

CITY           SKY/WX    TMP DP  RH WIND       PRES   REMARKS
PENSACOLA      CLEAR     64  59  83 N3        29.79S
NAS PENSACOLA  CLEAR     61  59  93 NW3       29.79S
MILTON         LGT RAIN  58  57  97 N5        29.79F
WHTNG S FIELD  CLEAR     61  58  90 N5        29.80S


CITY           SKY/WX    TMP DP  RH WIND       PRES   REMARKS
JAY*           NOT AVBL
DUKE FIELD     CLEAR     58  57  97 N5        29.78R
CRESTVIEW      CLEAR     61  59  93 N6        29.81R
VALPARAISO     CLEAR     61  59  93 N3        29.78R
DESTIN         CLEAR     66  66 100 N7        29.77R

$$

MSZ076-079-230800-
INTERIOR SOUTHEAST MISSISSIPPI

CITY           SKY/WX    TMP DP  RH WIND       PRES   REMARKS
LEAKESVILLE*   NOT AVBL
AGRICOLA*      NOT AVBL

$$

MARINE OBSERVATIONS

STATION/POSITION TIME  TEMP    WIND        PRES    WAVE
                       AIR SEA DIR/SP/G            HT/PER
                 (UTC) (F)     (DEG/KT/KT) (MB)    (FT/S)
PASCAGOULA       0648   61     350/  8/ 10 1009.2S
PETIT BOIS ISLND 0648   64     350/ 14/ 17 1009.7F
GRAND BAY        0545   62     340/  6     1010.0S
KATRINA CUT      0630          360/ 12     1009.1S
CEDAR POINT      0630   62     360/  8     1008.8F
E DAUPHIN ISLAND 0600   64     340/  9/ 10 1008.8R
MIDDLE BAY LIGHT 0630   64      10/  9     1008.8F
USCG MOBILE BAY  0648   61 64  360/  4/  6 1010.0S
STATE DOCKS      0642   60 64              1009.4R
MEAHER PARK      0630   60     360/  3     1009.5S
WEEKS BAY        0545   58                   N/A
FORT MORGAN      0648   64      10/ 12/ 13   N/A
12 S ORANGE BCH  0650   67 68   10/  8/ 10 1008.7R   2/ 7
PENSACOLA BAY    0642   64 66  360/  4/  5 1008.9S
67 S FORT MORGAN 0630   69      20/ 10     1008.1S

$$

SELECTED LOCATIONS ACROSS THE REGION

CITY           SKY/WX    TMP DP  RH WIND       PRES   REMARKS
NEW ORLEANS    CLEAR     59  57  93 CALM      29.83F
GULFPORT       CLEAR     59  56  89 N7        29.81F
PASCAGOULA AP  CLEAR     58  55  90 N5        29.81S
PASCAGOULA*    NOT AVBL
HATTIESBURG    CLEAR     52  51  97 CALM      29.84F
LAUREL           N/A     52  48  87 CALM      29.85S VSB 1/2
MERIDIAN       CLEAR     52  51  97 CALM      29.84F FOG
JACKSON        CLEAR     52  51  97 CALM      29.82S FOG
MONTGOMERY     CLEAR     62  56  80 NE5       29.83S
TROY           CLOUDY    60  60 100 NE5       29.82R
ASHFORD*       NOT AVBL
DOTHAN         MOCLDY    60  60 100 NE6       29.82S
PANAMA CITY    CLEAR     62  60  93 NE6       29.75F

$$





USA.gov is the U.S. government's official web portal to all federal, state and local government web resources and services.